Location: Newark
(48.1281°N, 2.1556°W)
Time: 12:30:26
(UTC+00:00)

Envisat - Pass Details

Date: 28 November 2019
Orbit: 764 x 766 km, 98.1° (Epoch: 16 December)

Event Time Altitude Azimuth Distance (km) Brightness Sun altitude
Rises 16:43:44 0° 126° (SE) 3,225 6.0 -4.4°
Reaches altitude 10° 16:46:25 10° 112° (ESE) 2,303 5.1 -4.8°
Maximum altitude 16:50:22 24° 61° (ENE) 1,572 4.0 -5.4°
Drops below altitude 10° 16:54:20 10° 10° (N) 2,314 5.2 -6.0°
Sets 16:57:02 0° 357° (N) 3,245 6.0 -6.4°
